FW6802 Weather Reports


Display with metric or nautical units.
time (UTC)temp
F
wind
direction
speed
MPH
gust
MPH
rain 1hr
in
rain 24hr
in
rain mn
in
humidity
%
barometer
mb
20260901233821 91 204 3.0 12.0 0.00 0.00 0.00 65 1013.2
20260901233320 92 198 4.0 12.0 0.00 0.00 0.00 65 1013.7
20260901232820 92 205 2.0 12.0 0.00 0.00 0.00 64 1011.6
20260901231804 93 194 2.0 12.0 0.00 0.00 0.00 63 1011.6
20260901231304 93 198 2.0 12.0 0.00 0.00 0.00 63 1011.9
20260901230804 93 193 3.0 12.0 0.00 0.00 0.00 62 1012.7
20260901230304 93 181 2.0 12.0 0.00 0.00 0.00 61 1013.2
20260901225804 94 197 3.0 12.0 0.00 0.00 0.00 60 1013.4
20260901225306 94 186 2.0 12.0 0.00 0.00 0.00 59 1013.7
20260901224803 94 180 3.0 12.0 0.00 0.00 0.00 59 1014.1
20260901224302 94 200 3.0 12.0 0.00 0.00 0.00 58 1014.2
20260901223802 95 178 3.0 12.0 0.00 0.00 0.00 58 1014.5
20260901223302 95 193 4.0 12.0 0.00 0.00 0.00 57 1014.0
20260901222802 95 191 5.0 12.0 0.00 0.00 0.00 57 1014.2
20260901222306 95 200 3.0 12.0 0.00 0.00 0.00 56 1014.2
20260901221801 95 211 5.0 12.0 0.00 0.00 0.00 55 1014.1
20260901221301 95 196 4.0 12.0 0.00 0.00 0.00 56 1014.0
20260901220800 95 206 5.0 12.0 0.00 0.00 0.00 55 1013.9
20260901220259 95 192 4.0 12.0 0.00 0.00 0.00 55 1013.8
20260901215758 95 210 5.0 12.0 0.00 0.00 0.00 55 1013.9
20260901215258 96 206 4.0 12.0 0.00 0.00 0.00 54 1013.6
20260901214755 96 214 5.0 12.0 0.00 0.00 0.00 54 1013.7
20260901214254 96 212 5.0 12.0 0.00 0.00 0.00 54 1014.0
20260901213238 96 197 6.0 12.0 0.00 0.00 0.00 54 1014.6
20260901212223 97 215 4.0 12.0 0.00 0.00 0.00 53 1013.9
20260901211722 97 181 5.0 12.0 0.00 0.00 0.00 54 1014.2
20260901211222 97 226 5.0 12.0 0.00 0.00 0.00 53 1013.3
20260901210721 97 204 5.0 12.0 0.00 0.00 0.00 53 1013.3
20260901210220 96 211 5.0 12.0 0.00 0.00 0.00 54 1013.5
20260901205203 96 211 6.0 12.0 0.00 0.00 0.00 53 1013.8
20260901204702 96 204 5.0 12.0 0.00 0.00 0.00 54 1013.6
20260901204201 97 218 7.0 13.0 0.00 0.00 0.00 52 1014.1
20260901203700 97 221 6.0 13.0 0.00 0.00 0.00 51 1013.6
20260901203159 97 207 7.0 13.0 0.00 0.00 0.00 52 1013.7
20260901202658 97 189 4.0 13.0 0.00 0.00 0.00 53 1013.9
20260901202158 96 212 6.0 13.0 0.00 0.00 0.00 52 1013.6
20260901201658 97 205 7.0 13.0 0.00 0.00 0.00 52 1013.7
20260901200642 97 223 7.0 12.0 0.00 0.00 0.00 52 1013.8
20260901200142 97 169 6.0 12.0 0.00 0.00 0.00 52 1013.8
20260901195641 97 192 5.0 12.0 0.00 0.00 0.00 52 1013.7
20260901195140 97 211 6.0 12.0 0.00 0.00 0.00 51 1013.7
20260901194639 97 206 6.0 13.0 0.00 0.00 0.00 51 1014.0
20260901194138 97 196 5.0 13.0 0.00 0.00 0.00 52 1013.7
20260901193121 97 217 6.0 13.0 0.00 0.00 0.00 52 1014.3
20260901192621 97 201 6.0 12.0 0.00 0.00 0.00 50 1014.2
20260901192120 97 224 6.0 14.0 0.00 0.00 0.00 51 1014.1
20260901185517 97 214 7.0 14.0 0.00 0.00 0.00 50 1014.3
20260901184501 97 226 7.0 13.0 0.00 0.00 0.00 51 1014.6
20260901184001 96 219 5.0 13.0 0.00 0.00 0.00 52 1014.5
20260901183501 96 203 6.0 13.0 0.00 0.00 0.00 53 1014.4
20260901183001 97 216 6.0 12.0 0.00 0.00 0.00 52 1014.5
20260901182501 97 218 5.0 12.0 0.00 0.00 0.00 51 1014.6
20260901182001 96 202 6.0 13.0 0.00 0.00 0.00 53 1014.8
20260901181501 96 206 3.0 13.0 0.00 0.00 0.00 53 1014.3
20260901181001 96 210 7.0 13.0 0.00 0.00 0.00 52 1014.7
20260901180501 96 202 6.0 13.0 0.00 0.00 0.00 53 1014.7
20260901180001 96 184 5.0 13.0 0.00 0.00 0.00 54 1014.6
20260901175501 96 198 5.0 13.0 0.00 0.00 0.00 53 1014.7
20260901173928 95 224 6.0 12.0 0.00 0.00 0.00 55 1014.7
20260901173428 95 228 6.0 12.0 0.00 0.00 0.00 55 1014.8
20260901172414 94 218 6.0 13.0 0.00 0.00 0.00 55 1014.8
20260901171913 94 213 6.0 13.0 0.00 0.00 0.00 55 1014.8
20260901171412 94 185 5.0 13.0 0.00 0.00 0.00 56 1015.0
20260901170912 94 190 6.0 12.0 0.00 0.00 0.00 57 1014.7
20260901170412 94 187 5.0 12.0 0.00 0.00 0.00 56 1015.0
20260901165911 93 217 5.0 12.0 0.00 0.00 0.00 58 1014.9
20260901165411 93 193 8.0 12.0 0.00 0.00 0.00 57 1015.0
20260901164911 94 209 5.0 12.0 0.00 0.00 0.00 57 1015.0
20260901164410 94 218 5.0 12.0 0.00 0.00 0.00 56 1015.1
20260901163911 93 201 6.0 12.0 0.00 0.00 0.00 57 1015.3
20260901163410 93 210 5.0 11.0 0.00 0.00 0.00 57 1015.5
20260901162354 92 209 6.0 11.0 0.00 0.00 0.00 61 1015.4
20260901161853 91 209 4.0 11.0 0.00 0.00 0.00 63 1015.4
20260901161352 91 174 5.0 11.0 0.00 0.00 0.00 62 1015.2
20260901160851 91 200 3.0 11.0 0.00 0.00 0.00 64 1015.7
20260901160350 91 204 5.0 12.0 0.00 0.00 0.00 64 1015.4
20260901155849 90 205 4.0 12.0 0.00 0.00 0.00 65 1015.7
20260901155349 90 205 4.0 12.0 0.00 0.00 0.00 66 1015.2
20260901154848 90 187 5.0 12.0 0.00 0.00 0.00 65 1015.2
20260901154346 89 212 3.0 12.0 0.00 0.00 0.00 67 1015.5
20260901153846 89 208 5.0 12.0 0.00 0.00 0.00 68 1015.5
20260901153345 88 210 5.0 12.0 0.00 0.00 0.00 68 1015.4
20260901152844 88 213 4.0 12.0 0.00 0.00 0.00 69 1015.4
20260901152345 88 207 5.0 12.0 0.00 0.00 0.00 69 1015.5
20260901151843 87 217 5.0 12.0 0.00 0.00 0.00 70 1015.4
20260901150827 87 210 5.0 12.0 0.00 0.00 0.00 71 1015.8
20260901150327 86 221 6.0 12.0 0.00 0.00 0.00 71 1015.8
20260901145827 86 206 3.0 12.0 0.00 0.00 0.00 72 1015.6
20260901145326 86 191 3.0 12.0 0.00 0.00 0.00 72 1015.6
20260901144826 85 203 5.0 12.0 0.00 0.00 0.00 73 1015.6
20260901144327 85 212 4.0 12.0 0.00 0.00 0.00 73 1015.7
20260901143825 85 215 5.0 12.0 0.00 0.00 0.00 74 1015.5
20260901143325 84 224 4.0 12.0 0.00 0.00 0.00 74 1015.1
20260901142825 84 226 4.0 12.0 0.00 0.00 0.00 75 1015.6
20260901142324 84 218 4.0 12.0 0.00 0.00 0.00 75 1015.6
20260901141824 83 204 4.0 12.0 0.00 0.00 0.00 76 1015.4
20260901141322 83 219 5.0 12.0 0.00 0.00 0.00 77 1015.3
20260901140822 82 209 5.0 12.0 0.00 0.00 0.00 78 1015.6
20260901140321 81 221 4.0 12.0 0.00 0.00 0.00 79 1015.7
20260901135821 81 195 4.0 12.0 0.00 0.00 0.00 80 1015.6
20260901135322 81 189 4.0 12.0 0.00 0.00 0.00 80 1015.4
20260901134821 80 181 4.0 12.0 0.00 0.00 0.00 80 1015.4
20260901134320 80 183 2.0 12.0 0.00 0.00 0.00 81 1015.5
20260901133820 80 194 3.0 12.0 0.00 0.00 0.00 81 1015.9
20260901133319 80 207 5.0 12.0 0.00 0.00 0.00 81 1015.4
20260901132818 79 196 4.0 12.0 0.00 0.00 0.00 82 1015.6
20260901132318 79 206 3.0 12.0 0.00 0.00 0.00 82 1015.5
20260901131816 79 189 3.0 12.0 0.00 0.00 0.00 83 1016.0
20260901131316 78 196 3.0 12.0 0.00 0.00 0.00 84 1015.8
20260901130817 78 188 3.0 12.0 0.00 0.00 0.00 85 1015.7
20260901130316 77 176 3.0 12.0 0.00 0.00 0.00 85 1015.6
20260901125816 77 189 3.0 12.0 0.00 0.00 0.00 86 1016.1
20260901125316 77 170 3.0 12.0 0.00 0.00 0.00 86 1015.7
20260901124816 76 181 2.0 12.0 0.00 0.00 0.00 87 1015.8
20260901124315 76 179 3.0 12.0 0.00 0.00 0.00 87 1015.8
20260901123815 76 181 3.0 12.0 0.00 0.00 0.00 88 1015.6
20260901123315 75 172 3.0 12.0 0.00 0.00 0.00 88 1015.6
20260901122814 75 184 4.0 12.0 0.00 0.00 0.00 89 1015.4
20260901122312 75 191 3.0 12.0 0.00 0.00 0.00 89 1015.0
20260901121812 75 170 1.0 12.0 0.00 0.00 0.00 89 1015.6
20260901121311 75 177 3.0 12.0 0.00 0.00 0.00 89 1015.3
20260901120811 75 183 1.0 12.0 0.00 0.00 0.00 89 1015.1
20260901120311 74 172 2.0 12.0 0.00 0.00 0.00 89 1015.0
20260901115811 74 174 3.0 12.0 0.00 0.00 0.00 89 1015.1
20260901115311 74 170 1.0 12.0 0.00 0.00 0.00 89 1015.0
20260901114811 74 171 1.0 12.0 0.00 0.00 0.00 89 1014.8
20260901114311 74 167 2.0 12.0 0.00 0.00 0.00 89 1015.4
20260901113811 74 165 1.0 12.0 0.00 0.00 0.00 90 1014.9
20260901112756 74 164 0.0 12.0 0.00 0.00 0.00 89 1014.8
20260901112256 74 164 1.0 12.0 0.00 0.00 0.00 89 1014.7
20260901111756 74 179 1.0 12.0 0.00 0.00 0.00 89 1014.8
20260901110223 74 186 1.0 12.0 0.00 0.00 0.00 89 1014.8
20260901105723 74 180 1.0 12.0 0.00 0.00 0.00 89 1015.1
20260901104706 74 182 1.0 12.0 0.00 0.00 0.00 89 1014.7
20260901104206 74 176 1.0 12.0 0.00 0.00 0.00 89 1014.7
20260901103705 74 172 1.0 12.0 0.00 0.00 0.00 89 1014.7
20260901103205 74 172 1.0 12.0 0.00 0.00 0.00 90 1014.6
20260901102704 74 179 1.0 12.0 0.00 0.00 0.00 89 1014.6
20260901102203 74 187 1.0 12.0 0.00 0.00 0.00 89 1014.6
20260901101147 75 187 1.0 12.0 0.00 0.00 0.00 89 1014.5
20260901100646 75 188 1.0 12.0 0.00 0.00 0.00 89 1014.5
20260901100145 75 190 1.0 12.0 0.00 0.00 0.00 89 1014.5
20260901095644 75 190 1.0 12.0 0.00 0.00 0.00 89 1014.6
20260901095144 75 189 1.0 12.0 0.00 0.00 0.00 89 1014.5
20260901094644 75 196 0.0 12.0 0.00 0.00 0.00 89 1014.4
20260901094143 75 196 1.0 12.0 0.00 0.00 0.00 89 1014.7
20260901093643 75 195 1.0 12.0 0.00 0.00 0.00 89 1014.5
20260901093143 75 202 1.0 12.0 0.00 0.00 0.00 89 1014.5
20260901092643 75 202 0.0 12.0 0.00 0.00 0.00 89 1014.5
20260901092143 75 202 0.0 12.0 0.00 0.00 0.00 89 1014.6
20260901091642 75 202 0.0 12.0 0.00 0.00 0.00 89 1014.3
20260901091142 75 203 0.0 12.0 0.00 0.00 0.00 89 1014.2
20260901090125 75 203 0.0 12.0 0.00 0.00 0.00 89 1014.4
20260901085625 75 201 2.0 12.0 0.00 0.00 0.00 89 1014.1
20260901084609 75 206 1.0 12.0 0.00 0.00 0.00 89 1014.2
20260901084109 75 215 0.0 12.0 0.00 0.00 0.00 89 1014.2
20260901083609 75 215 0.0 12.0 0.00 0.00 0.00 89 1014.1
20260901082553 76 204 1.0 12.0 0.00 0.00 0.00 88 1014.2
20260901081537 76 205 1.0 12.0 0.00 0.00 0.00 88 1014.2
20260901081037 76 204 1.0 12.0 0.00 0.00 0.00 88 1013.9
20260901080536 76 205 1.0 12.0 0.00 0.00 0.00 88 1014.1
20260901074449 76 206 1.0 12.0 0.00 0.00 0.00 88 1014.1
20260901073949 76 206 1.0 12.0 0.00 0.00 0.00 88 1013.9
20260901072933 76 208 0.0 12.0 0.00 0.00 0.00 88 1014.3
20260901071918 77 208 1.0 12.0 0.00 0.00 0.00 88 1014.0
20260901065830 77 210 2.0 12.0 0.00 0.00 0.00 88 1013.7
20260901065329 77 197 2.0 12.0 0.00 0.00 0.00 88 1014.0
20260901064829 77 200 2.0 12.0 0.00 0.00 0.00 88 1014.4
20260901063813 77 211 2.0 12.0 0.00 0.00 0.00 87 1014.3
20260901063312 77 198 2.0 12.0 0.00 0.00 0.00 87 1014.0
20260901062812 77 194 2.0 12.0 0.00 0.00 0.00 87 1014.1
20260901062311 77 184 1.0 12.0 0.00 0.00 0.00 87 1014.1
20260901061811 77 205 3.0 12.0 0.00 0.00 0.00 86 1014.2
20260901060755 78 196 2.0 12.0 0.00 0.00 0.00 86 1014.4
20260901060254 78 192 2.0 12.0 0.00 0.00 0.00 86 1014.4
20260901055753 78 199 1.0 12.0 0.00 0.00 0.00 85 1014.4
20260901055252 78 204 1.0 12.0 0.00 0.00 0.00 85 1014.3
20260901054752 78 204 2.0 12.0 0.00 0.00 0.00 85 1014.5
20260901054252 78 181 2.0 12.0 0.00 0.00 0.00 85 1014.4
20260901053752 79 196 1.0 12.0 0.00 0.00 0.00 84 1014.5
20260901052737 79 207 3.0 12.0 0.00 0.00 0.00 83 1014.5
20260901052237 79 200 2.0 12.0 0.00 0.00 0.00 83 1014.4
20260901051736 80 181 2.0 12.0 0.00 0.00 0.00 83 1014.3
20260901050716 80 181 3.0 12.0 0.00 0.00 0.00 83 1014.4
20260901050215 80 187 4.0 12.0 0.00 0.00 0.00 83 1014.1
20260901044643 80 187 2.0 12.0 0.00 0.00 0.00 83 1014.3
20260901044143 80 194 4.0 12.0 0.00 0.00 0.00 83 1014.2
20260901043642 80 169 3.0 12.0 0.00 0.00 0.00 82 1014.1
20260901042626 80 180 3.0 12.0 0.00 0.00 0.00 83 1014.3
20260901042126 80 177 3.0 12.0 0.00 0.00 0.00 83 1014.4
20260901041626 80 182 3.0 12.0 0.00 0.00 0.00 82 1014.2
20260901041125 80 186 3.0 12.0 0.00 0.00 0.00 82 1014.3
20260901040624 80 191 3.0 12.0 0.00 0.00 0.00 82 1014.4
20260901040124 81 195 1.0 12.0 0.00 0.00 0.00 81 1014.3
20260901035624 81 191 3.0 12.0 0.00 0.00 0.00 81 1014.4
20260901035124 81 186 3.0 12.0 0.00 0.00 0.00 81 1014.3
20260901034624 81 191 2.0 12.0 0.00 0.00 0.00 81 1014.5
20260901034123 81 181 3.0 12.0 0.00 0.00 0.00 81 1014.2
20260901033622 81 188 3.0 12.0 0.00 0.00 0.00 81 1014.2
20260901033122 81 183 3.0 12.0 0.00 0.00 0.00 82 1014.6
20260901032622 81 179 2.0 12.0 0.00 0.00 0.00 82 1014.9
20260901032121 81 172 1.0 12.0 0.00 0.00 0.00 82 1014.7
20260901031621 80 170 2.0 12.0 0.00 0.00 0.00 82 1014.8
20260901031120 80 170 0.0 12.0 0.00 0.00 0.00 82 1014.6
20260901030620 80 170 0.0 12.0 0.00 0.00 0.00 82 1014.7
20260901030119 81 170 0.0 12.0 0.00 0.00 0.00 82 1014.5
20260901025619 81 170 1.0 12.0 0.00 0.00 0.00 82 1014.5
20260901025118 81 170 0.0 12.0 0.00 0.00 0.00 81 1014.7
20260901024617 81 170 1.0 12.0 0.00 0.00 0.00 81 1014.4
20260901024116 81 167 1.0 12.0 0.00 0.00 0.00 81 1014.7
20260901023101 82 184 0.0 12.0 0.00 0.00 0.00 80 1014.8
20260901022044 82 184 0.0 12.0 0.00 0.00 0.00 79 1014.7
20260901021543 83 184 0.0 12.0 0.00 0.00 0.00 79 1014.6
20260901021042 83 184 0.0 12.0 0.00 0.00 0.00 79 1014.8
20260901020541 83 184 1.0 12.0 0.00 0.00 0.00 78 1014.6
20260901020041 83 184 1.0 12.0 0.00 0.00 0.00 78 1014.4
20260901013955 83 172 1.0 12.0 0.00 0.00 0.00 79 1014.4
20260901013454 83 183 1.0 12.0 0.00 0.00 0.00 79 1014.3
20260901012954 83 183 0.0 12.0 0.00 0.00 0.00 79 1014.1
20260901012454 83 183 1.0 12.0 0.00 0.00 0.00 79 1013.9
20260901011953 83 183 1.0 12.0 0.00 0.00 0.00 78 1014.0
20260901011452 84 183 1.0 12.0 0.00 0.00 0.00 78 1014.0
20260901010951 84 183 0.0 12.0 0.00 0.00 0.00 77 1013.9
20260901010450 84 183 1.0 12.0 0.00 0.00 0.00 77 1014.0
20260901005949 84 184 0.0 12.0 0.00 0.00 0.00 77 1013.9
20260901004933 85 184 1.0 12.0 0.00 0.00 0.00 76 1013.7
20260901003917 85 184 0.0 12.0 0.00 0.00 0.00 75 1013.9
20260901003416 85 188 1.0 12.0 0.00 0.00 0.00 74 1013.7
20260901002916 86 187 1.0 12.0 0.00 0.00 0.00 74 1013.9
20260901001900 86 178 2.0 12.0 0.00 0.00 0.00 73 1013.6
20260901001400 86 184 2.0 12.0 0.00 0.00 0.00 73 1013.5
20260901000900 86 169 2.0 12.0 0.00 0.00 0.00 72 1013.6
20260831235844 87 171 1.0 12.0 0.00 0.00 0.00 72 1013.2
20260831235344 87 195 2.0 12.0 0.00 0.00 0.00 71 1013.5
20260831234843 87 186 2.0 12.0 0.00 0.00 0.00 71 1013.3